sat.trackr.live / text

‹ back to catalog

QIANFAN-29

NORAD 61562 · 2024-185L

PAYLOAD ACTIVE UNKNOWN

§ Identity

Operator
Country
PRC
Launch date
2024-10-15
Launch site
TAISC
Launch vehicle
Mass (kg)
RCS (m²)

External: N2YO · Heavens-Above · Gunter

§ Orbital elements

Epoch: 2026-09-22T19:59:52.591776Z

Period
106.58 min
Inclination
88.9806°
Eccentricity
0.0008397
Mean motion
13.51095209 rev/d
Perigee alt
1,062.0 km
Apogee alt
1,074.5 km
Semi-major
7,446.4 km
B*
1.9621e-4
RAAN
51.9463°
Arg perigee
316.3707°
Mean anomaly
43.6780°
Rev number
10,615

§ Raw data

QIANFAN-291 61562U 24185L   26265.83324759  .00000139  00000+0  19621-3 0  99962 61562  88.9806  51.9463 0008397 316.3707  43.6780 13.51095209106159

JSON: /api/v1/satellites/61562 · /tle

For live sub-satellite position, see the globe view (requires WebGL).

§ Visibility from observer

Set your observer location to see the next 7 days of passes ≥ 10°. The values pass through the URL so the page stays shareable.

No JS? Fill the form by hand. The geolocation button needs JavaScript.